Index of /20260504/WXO-DD/model_caps/3km/12/045
Name Last modified Size Description
Parent Directory -
20260504T12Z_MSC_CAPS_AbsoluteVorticity_IsbL-0250_RLatLon0.03_PT045H.grib2 2026-05-04 18:24 1.0M
20260504T12Z_MSC_CAPS_AbsoluteVorticity_IsbL-0500_RLatLon0.03_PT045H.grib2 2026-05-04 18:24 1.1M
20260504T12Z_MSC_CAPS_AbsoluteVorticity_IsbL-0700_RLatLon0.03_PT045H.grib2 2026-05-04 18:24 1.3M
20260504T12Z_MSC_CAPS_AbsoluteVorticity_IsbL-0850_RLatLon0.03_PT045H.grib2 2026-05-04 18:24 1.3M
20260504T12Z_MSC_CAPS_AbsoluteVorticity_IsbL-1000_RLatLon0.03_PT045H.grib2 2026-05-04 18:24 1.4M
20260504T12Z_MSC_CAPS_AirDensity_AGL-120m_RLatLon0.03_PT045H.grib2 2026-05-04 18:24 1.4M
20260504T12Z_MSC_CAPS_AirDensity_AGL-40m_RLatLon0.03_PT045H.grib2 2026-05-04 18:24 1.4M
20260504T12Z_MSC_CAPS_AirDensity_AGL-80m_RLatLon0.03_PT045H.grib2 2026-05-04 18:24 1.4M
20260504T12Z_MSC_CAPS_AirTemp_AGL-120m_RLatLon0.03_PT045H.grib2 2026-05-04 18:24 1.4M
20260504T12Z_MSC_CAPS_AirTemp_AGL-2m_RLatLon0.03_PT045H.grib2 2026-05-04 18:24 1.7M
20260504T12Z_MSC_CAPS_AirTemp_AGL-40m_RLatLon0.03_PT045H.grib2 2026-05-04 18:24 1.5M
20260504T12Z_MSC_CAPS_AirTemp_AGL-80m_RLatLon0.03_PT045H.grib2 2026-05-04 18:24 1.5M
20260504T12Z_MSC_CAPS_AirTemp_IsbL-0050_RLatLon0.03_PT045H.grib2 2026-05-04 18:24 689K
20260504T12Z_MSC_CAPS_AirTemp_IsbL-0100_RLatLon0.03_PT045H.grib2 2026-05-04 18:24 953K
20260504T12Z_MSC_CAPS_AirTemp_IsbL-0150_RLatLon0.03_PT045H.grib2 2026-05-04 18:24 751K
20260504T12Z_MSC_CAPS_AirTemp_IsbL-0175_RLatLon0.03_PT045H.grib2 2026-05-04 18:24 780K
20260504T12Z_MSC_CAPS_AirTemp_IsbL-0200_RLatLon0.03_PT045H.grib2 2026-05-04 18:24 804K
20260504T12Z_MSC_CAPS_AirTemp_IsbL-0225_RLatLon0.03_PT045H.grib2 2026-05-04 18:24 801K
20260504T12Z_MSC_CAPS_AirTemp_IsbL-0250_RLatLon0.03_PT045H.grib2 2026-05-04 18:24 1.0M
20260504T12Z_MSC_CAPS_AirTemp_IsbL-0275_RLatLon0.03_PT045H.grib2 2026-05-04 18:24 1.0M
20260504T12Z_MSC_CAPS_AirTemp_IsbL-0300_RLatLon0.03_PT045H.grib2 2026-05-04 18:24 859K
20260504T12Z_MSC_CAPS_AirTemp_IsbL-0350_RLatLon0.03_PT045H.grib2 2026-05-04 18:24 761K
20260504T12Z_MSC_CAPS_AirTemp_IsbL-0400_RLatLon0.03_PT045H.grib2 2026-05-04 18:24 769K
20260504T12Z_MSC_CAPS_AirTemp_IsbL-0450_RLatLon0.03_PT045H.grib2 2026-05-04 18:24 784K
20260504T12Z_MSC_CAPS_AirTemp_IsbL-0500_RLatLon0.03_PT045H.grib2 2026-05-04 18:24 797K
20260504T12Z_MSC_CAPS_AirTemp_IsbL-0550_RLatLon0.03_PT045H.grib2 2026-05-04 18:24 807K
20260504T12Z_MSC_CAPS_AirTemp_IsbL-0600_RLatLon0.03_PT045H.grib2 2026-05-04 18:24 828K
20260504T12Z_MSC_CAPS_AirTemp_IsbL-0650_RLatLon0.03_PT045H.grib2 2026-05-04 18:24 860K
20260504T12Z_MSC_CAPS_AirTemp_IsbL-0700_RLatLon0.03_PT045H.grib2 2026-05-04 18:24 1.0M
20260504T12Z_MSC_CAPS_AirTemp_IsbL-0750_RLatLon0.03_PT045H.grib2 2026-05-04 18:24 1.1M
20260504T12Z_MSC_CAPS_AirTemp_IsbL-0800_RLatLon0.03_PT045H.grib2 2026-05-04 18:24 1.1M
20260504T12Z_MSC_CAPS_AirTemp_IsbL-0850_RLatLon0.03_PT045H.grib2 2026-05-04 18:24 1.1M
20260504T12Z_MSC_CAPS_AirTemp_IsbL-0875_RLatLon0.03_PT045H.grib2 2026-05-04 18:24 1.1M
20260504T12Z_MSC_CAPS_AirTemp_IsbL-0900_RLatLon0.03_PT045H.grib2 2026-05-04 18:24 1.1M
20260504T12Z_MSC_CAPS_AirTemp_IsbL-0925_RLatLon0.03_PT045H.grib2 2026-05-04 18:24 1.0M
20260504T12Z_MSC_CAPS_AirTemp_IsbL-0950_RLatLon0.03_PT045H.grib2 2026-05-04 18:24 1.1M
20260504T12Z_MSC_CAPS_AirTemp_IsbL-0970_RLatLon0.03_PT045H.grib2 2026-05-04 18:24 1.1M
20260504T12Z_MSC_CAPS_AirTemp_IsbL-0985_RLatLon0.03_PT045H.grib2 2026-05-04 18:24 1.1M
20260504T12Z_MSC_CAPS_AirTemp_IsbL-1000_RLatLon0.03_PT045H.grib2 2026-05-04 18:24 1.0M
20260504T12Z_MSC_CAPS_AirTemp_IsbL-1015_RLatLon0.03_PT045H.grib2 2026-05-04 18:24 1.1M
20260504T12Z_MSC_CAPS_Albedo_Sfc_RLatLon0.03_PT045H.grib2 2026-05-04 18:24 2.7M
20260504T12Z_MSC_CAPS_CAPE_Sfc_RLatLon0.03_PT045H.grib2 2026-05-04 18:24 274K
20260504T12Z_MSC_CAPS_CloudWater_EAtm_RLatLon0.03_PT045H.grib2 2026-05-04 18:24 1.5M
20260504T12Z_MSC_CAPS_ConvectivePrecip-Accum_Sfc_RLatLon0.03_PT045H.grib2 2026-05-04 18:24 5.1M
20260504T12Z_MSC_CAPS_DewPointDepression_AGL-120m_RLatLon0.03_PT045H.grib2 2026-05-04 18:24 2.2M
20260504T12Z_MSC_CAPS_DewPointDepression_AGL-2m_RLatLon0.03_PT045H.grib2 2026-05-04 18:24 2.2M
20260504T12Z_MSC_CAPS_DewPointDepression_AGL-40m_RLatLon0.03_PT045H.grib2 2026-05-04 18:24 2.2M
20260504T12Z_MSC_CAPS_DewPointDepression_AGL-80m_RLatLon0.03_PT045H.grib2 2026-05-04 18:24 2.2M
20260504T12Z_MSC_CAPS_DewPointDepression_IsbL-0050_RLatLon0.03_PT045H.grib2 2026-05-04 18:24 4.1K
20260504T12Z_MSC_CAPS_DewPointDepression_IsbL-0100_RLatLon0.03_PT045H.grib2 2026-05-04 18:24 45K
20260504T12Z_MSC_CAPS_DewPointDepression_IsbL-0150_RLatLon0.03_PT045H.grib2 2026-05-04 18:24 61K
20260504T12Z_MSC_CAPS_DewPointDepression_IsbL-0175_RLatLon0.03_PT045H.grib2 2026-05-04 18:24 243K
20260504T12Z_MSC_CAPS_DewPointDepression_IsbL-0200_RLatLon0.03_PT045H.grib2 2026-05-04 18:24 413K
20260504T12Z_MSC_CAPS_DewPointDepression_IsbL-0225_RLatLon0.03_PT045H.grib2 2026-05-04 18:24 624K
20260504T12Z_MSC_CAPS_DewPointDepression_IsbL-0250_RLatLon0.03_PT045H.grib2 2026-05-04 18:24 869K
20260504T12Z_MSC_CAPS_DewPointDepression_IsbL-0275_RLatLon0.03_PT045H.grib2 2026-05-04 18:24 1.0M
20260504T12Z_MSC_CAPS_DewPointDepression_IsbL-0300_RLatLon0.03_PT045H.grib2 2026-05-04 18:24 1.1M
20260504T12Z_MSC_CAPS_DewPointDepression_IsbL-0350_RLatLon0.03_PT045H.grib2 2026-05-04 18:24 1.1M
20260504T12Z_MSC_CAPS_DewPointDepression_IsbL-0400_RLatLon0.03_PT045H.grib2 2026-05-04 18:24 1.2M
20260504T12Z_MSC_CAPS_DewPointDepression_IsbL-0450_RLatLon0.03_PT045H.grib2 2026-05-04 18:24 1.2M
20260504T12Z_MSC_CAPS_DewPointDepression_IsbL-0500_RLatLon0.03_PT045H.grib2 2026-05-04 18:24 1.2M
20260504T12Z_MSC_CAPS_DewPointDepression_IsbL-0550_RLatLon0.03_PT045H.grib2 2026-05-04 18:24 1.3M
20260504T12Z_MSC_CAPS_DewPointDepression_IsbL-0600_RLatLon0.03_PT045H.grib2 2026-05-04 18:24 1.3M
20260504T12Z_MSC_CAPS_DewPointDepression_IsbL-0650_RLatLon0.03_PT045H.grib2 2026-05-04 18:24 1.3M
20260504T12Z_MSC_CAPS_DewPointDepression_IsbL-0700_RLatLon0.03_PT045H.grib2 2026-05-04 18:24 1.3M
20260504T12Z_MSC_CAPS_DewPointDepression_IsbL-0750_RLatLon0.03_PT045H.grib2 2026-05-04 18:24 1.3M
20260504T12Z_MSC_CAPS_DewPointDepression_IsbL-0800_RLatLon0.03_PT045H.grib2 2026-05-04 18:24 1.4M
20260504T12Z_MSC_CAPS_DewPointDepression_IsbL-0850_RLatLon0.03_PT045H.grib2 2026-05-04 18:24 1.4M
20260504T12Z_MSC_CAPS_DewPointDepression_IsbL-0875_RLatLon0.03_PT045H.grib2 2026-05-04 18:24 1.4M
20260504T12Z_MSC_CAPS_DewPointDepression_IsbL-0900_RLatLon0.03_PT045H.grib2 2026-05-04 18:24 1.4M
20260504T12Z_MSC_CAPS_DewPointDepression_IsbL-0925_RLatLon0.03_PT045H.grib2 2026-05-04 18:24 1.4M
20260504T12Z_MSC_CAPS_DewPointDepression_IsbL-0950_RLatLon0.03_PT045H.grib2 2026-05-04 18:24 1.4M
20260504T12Z_MSC_CAPS_DewPointDepression_IsbL-0970_RLatLon0.03_PT045H.grib2 2026-05-04 18:24 1.4M
20260504T12Z_MSC_CAPS_DewPointDepression_IsbL-0985_RLatLon0.03_PT045H.grib2 2026-05-04 18:24 1.4M
20260504T12Z_MSC_CAPS_DewPointDepression_IsbL-1000_RLatLon0.03_PT045H.grib2 2026-05-04 18:24 1.4M
20260504T12Z_MSC_CAPS_DewPointDepression_IsbL-1015_RLatLon0.03_PT045H.grib2 2026-05-04 18:24 1.4M
20260504T12Z_MSC_CAPS_DewPoint_AGL-120m_RLatLon0.03_PT045H.grib2 2026-05-04 18:24 3.7M
20260504T12Z_MSC_CAPS_DewPoint_AGL-2m_RLatLon0.03_PT045H.grib2 2026-05-04 18:24 1.8M
20260504T12Z_MSC_CAPS_DewPoint_AGL-40m_RLatLon0.03_PT045H.grib2 2026-05-04 18:24 3.8M
20260504T12Z_MSC_CAPS_DewPoint_AGL-80m_RLatLon0.03_PT045H.grib2 2026-05-04 18:24 3.7M
20260504T12Z_MSC_CAPS_DownwardLongwaveRadiationFlux-Accum_Sfc_RLatLon0.03_PT045H.grib2 2026-05-04 18:24 2.2M
20260504T12Z_MSC_CAPS_DownwardShortwaveRadiationFlux-Accum_NTAtm_RLatLon0.03_PT045H.grib2 2026-05-04 18:24 467K
20260504T12Z_MSC_CAPS_DownwardShortwaveRadiationFlux-Accum_Sfc_RLatLon0.03_PT045H.grib2 2026-05-04 18:24 3.0M
20260504T12Z_MSC_CAPS_FreezingRain-Accum_Sfc_RLatLon0.03_PT045H.grib2 2026-05-04 18:24 1.1M
20260504T12Z_MSC_CAPS_GeopotentialHeight_IsbL-0050_RLatLon0.03_PT045H.grib2 2026-05-04 18:24 827K
20260504T12Z_MSC_CAPS_GeopotentialHeight_IsbL-0100_RLatLon0.03_PT045H.grib2 2026-05-04 18:24 820K
20260504T12Z_MSC_CAPS_GeopotentialHeight_IsbL-0150_RLatLon0.03_PT045H.grib2 2026-05-04 18:24 603K
20260504T12Z_MSC_CAPS_GeopotentialHeight_IsbL-0175_RLatLon0.03_PT045H.grib2 2026-05-04 18:24 717K
20260504T12Z_MSC_CAPS_GeopotentialHeight_IsbL-0200_RLatLon0.03_PT045H.grib2 2026-05-04 18:24 741K
20260504T12Z_MSC_CAPS_GeopotentialHeight_IsbL-0225_RLatLon0.03_PT045H.grib2 2026-05-04 18:24 758K
20260504T12Z_MSC_CAPS_GeopotentialHeight_IsbL-0250_RLatLon0.03_PT045H.grib2 2026-05-04 18:24 769K
20260504T12Z_MSC_CAPS_GeopotentialHeight_IsbL-0275_RLatLon0.03_PT045H.grib2 2026-05-04 18:24 781K
20260504T12Z_MSC_CAPS_GeopotentialHeight_IsbL-0300_RLatLon0.03_PT045H.grib2 2026-05-04 18:24 787K
20260504T12Z_MSC_CAPS_GeopotentialHeight_IsbL-0350_RLatLon0.03_PT045H.grib2 2026-05-04 18:24 787K
20260504T12Z_MSC_CAPS_GeopotentialHeight_IsbL-0400_RLatLon0.03_PT045H.grib2 2026-05-04 18:24 782K
20260504T12Z_MSC_CAPS_GeopotentialHeight_IsbL-0450_RLatLon0.03_PT045H.grib2 2026-05-04 18:24 773K
20260504T12Z_MSC_CAPS_GeopotentialHeight_IsbL-0500_RLatLon0.03_PT045H.grib2 2026-05-04 18:24 767K
20260504T12Z_MSC_CAPS_GeopotentialHeight_IsbL-0550_RLatLon0.03_PT045H.grib2 2026-05-04 18:24 645K
20260504T12Z_MSC_CAPS_GeopotentialHeight_IsbL-0600_RLatLon0.03_PT045H.grib2 2026-05-04 18:24 641K
20260504T12Z_MSC_CAPS_GeopotentialHeight_IsbL-0650_RLatLon0.03_PT045H.grib2 2026-05-04 18:24 815K
20260504T12Z_MSC_CAPS_GeopotentialHeight_IsbL-0700_RLatLon0.03_PT045H.grib2 2026-05-04 18:24 814K
20260504T12Z_MSC_CAPS_GeopotentialHeight_IsbL-0750_RLatLon0.03_PT045H.grib2 2026-05-04 18:24 818K
20260504T12Z_MSC_CAPS_GeopotentialHeight_IsbL-0800_RLatLon0.03_PT045H.grib2 2026-05-04 18:24 826K
20260504T12Z_MSC_CAPS_GeopotentialHeight_IsbL-0850_RLatLon0.03_PT045H.grib2 2026-05-04 18:24 833K
20260504T12Z_MSC_CAPS_GeopotentialHeight_IsbL-0875_RLatLon0.03_PT045H.grib2 2026-05-04 18:24 840K
20260504T12Z_MSC_CAPS_GeopotentialHeight_IsbL-0900_RLatLon0.03_PT045H.grib2 2026-05-04 18:24 846K
20260504T12Z_MSC_CAPS_GeopotentialHeight_IsbL-0925_RLatLon0.03_PT045H.grib2 2026-05-04 18:24 857K
20260504T12Z_MSC_CAPS_GeopotentialHeight_IsbL-0950_RLatLon0.03_PT045H.grib2 2026-05-04 18:24 866K
20260504T12Z_MSC_CAPS_GeopotentialHeight_IsbL-0970_RLatLon0.03_PT045H.grib2 2026-05-04 18:24 680K
20260504T12Z_MSC_CAPS_GeopotentialHeight_IsbL-0985_RLatLon0.03_PT045H.grib2 2026-05-04 18:24 686K
20260504T12Z_MSC_CAPS_GeopotentialHeight_IsbL-1000_RLatLon0.03_PT045H.grib2 2026-05-04 18:24 692K
20260504T12Z_MSC_CAPS_GeopotentialHeight_IsbL-1015_RLatLon0.03_PT045H.grib2 2026-05-04 18:24 699K
20260504T12Z_MSC_CAPS_GeopotentialHeight_Sfc_RLatLon0.03_PT045H.grib2 2026-05-04 18:24 1.0M
20260504T12Z_MSC_CAPS_IcePellets-Accum_Sfc_RLatLon0.03_PT045H.grib2 2026-05-04 18:24 127K
20260504T12Z_MSC_CAPS_LatentHeatNetFlux_Sfc_RLatLon0.03_PT045H.grib2 2026-05-04 18:24 1.9M
20260504T12Z_MSC_CAPS_LiftedIndex-MU-VT_IsbL-0500_RLatLon0.03_PT045H.grib2 2026-05-04 18:24 3.4M
20260504T12Z_MSC_CAPS_MixedLayerThickness_Sfc_RLatLon0.03_PT045H.nc 2026-05-04 18:14 16M
20260504T12Z_MSC_CAPS_NetLongwaveRadiationFlux-Accum_Sfc_RLatLon0.03_PT045H.grib2 2026-05-04 18:24 2.9M
20260504T12Z_MSC_CAPS_NetShortwaveRadiationFlux-Accum_Sfc_RLatLon0.03_PT045H.grib2 2026-05-04 18:24 2.9M
20260504T12Z_MSC_CAPS_PlanetaryBoundaryLayerHeight_Sfc_RLatLon0.03_PT045H.grib2 2026-05-04 18:24 3.0M
20260504T12Z_MSC_CAPS_Precip-Accum_Sfc_RLatLon0.03_PT045H.grib2 2026-05-04 18:24 5.7M
20260504T12Z_MSC_CAPS_PrecipRate_Sfc_RLatLon0.03_PT045H.grib2 2026-05-04 18:24 527K
20260504T12Z_MSC_CAPS_PrecipType-Instant_Sfc_RLatLon0.03_PT045H.grib2 2026-05-04 18:24 2.1M
20260504T12Z_MSC_CAPS_Pressure_MSL_RLatLon0.03_PT045H.grib2 2026-05-04 18:24 928K
20260504T12Z_MSC_CAPS_Pressure_Sfc_RLatLon0.03_PT045H.grib2 2026-05-04 18:24 1.2M
20260504T12Z_MSC_CAPS_RadiativeTemp_Sfc_RLatLon0.03_PT045H.grib2 2026-05-04 18:24 2.1M
20260504T12Z_MSC_CAPS_Rain-Accum_Sfc_RLatLon0.03_PT045H.grib2 2026-05-04 18:24 3.0M
20260504T12Z_MSC_CAPS_RelativeHumidity_AGL-120m_RLatLon0.03_PT045H.grib2 2026-05-04 18:24 2.9M
20260504T12Z_MSC_CAPS_RelativeHumidity_AGL-2m_RLatLon0.03_PT045H.grib2 2026-05-04 18:24 3.0M
20260504T12Z_MSC_CAPS_RelativeHumidity_AGL-40m_RLatLon0.03_PT045H.grib2 2026-05-04 18:24 2.9M
20260504T12Z_MSC_CAPS_RelativeHumidity_AGL-80m_RLatLon0.03_PT045H.grib2 2026-05-04 18:24 2.9M
20260504T12Z_MSC_CAPS_RelativeHumidity_IsbL-0050_RLatLon0.03_PT045H.grib2 2026-05-04 18:24 1.0M
20260504T12Z_MSC_CAPS_RelativeHumidity_IsbL-0100_RLatLon0.03_PT045H.grib2 2026-05-04 18:24 877K
20260504T12Z_MSC_CAPS_RelativeHumidity_IsbL-0150_RLatLon0.03_PT045H.grib2 2026-05-04 18:24 760K
20260504T12Z_MSC_CAPS_RelativeHumidity_IsbL-0175_RLatLon0.03_PT045H.grib2 2026-05-04 18:24 634K
20260504T12Z_MSC_CAPS_RelativeHumidity_IsbL-0200_RLatLon0.03_PT045H.grib2 2026-05-04 18:24 675K
20260504T12Z_MSC_CAPS_RelativeHumidity_IsbL-0225_RLatLon0.03_PT045H.grib2 2026-05-04 18:24 902K
20260504T12Z_MSC_CAPS_RelativeHumidity_IsbL-0250_RLatLon0.03_PT045H.grib2 2026-05-04 18:24 1.1M
20260504T12Z_MSC_CAPS_RelativeHumidity_IsbL-0275_RLatLon0.03_PT045H.grib2 2026-05-04 18:24 1.4M
20260504T12Z_MSC_CAPS_RelativeHumidity_IsbL-0300_RLatLon0.03_PT045H.grib2 2026-05-04 18:24 1.5M
20260504T12Z_MSC_CAPS_RelativeHumidity_IsbL-0350_RLatLon0.03_PT045H.grib2 2026-05-04 18:24 1.8M
20260504T12Z_MSC_CAPS_RelativeHumidity_IsbL-0400_RLatLon0.03_PT045H.grib2 2026-05-04 18:24 1.9M
20260504T12Z_MSC_CAPS_RelativeHumidity_IsbL-0450_RLatLon0.03_PT045H.grib2 2026-05-04 18:24 2.0M
20260504T12Z_MSC_CAPS_RelativeHumidity_IsbL-0500_RLatLon0.03_PT045H.grib2 2026-05-04 18:24 2.0M
20260504T12Z_MSC_CAPS_RelativeHumidity_IsbL-0550_RLatLon0.03_PT045H.grib2 2026-05-04 18:24 2.2M
20260504T12Z_MSC_CAPS_RelativeHumidity_IsbL-0600_RLatLon0.03_PT045H.grib2 2026-05-04 18:24 2.1M
20260504T12Z_MSC_CAPS_RelativeHumidity_IsbL-0650_RLatLon0.03_PT045H.grib2 2026-05-04 18:24 2.3M
20260504T12Z_MSC_CAPS_RelativeHumidity_IsbL-0700_RLatLon0.03_PT045H.grib2 2026-05-04 18:24 2.4M
20260504T12Z_MSC_CAPS_RelativeHumidity_IsbL-0750_RLatLon0.03_PT045H.grib2 2026-05-04 18:24 2.4M
20260504T12Z_MSC_CAPS_RelativeHumidity_IsbL-0800_RLatLon0.03_PT045H.grib2 2026-05-04 18:24 2.5M
20260504T12Z_MSC_CAPS_RelativeHumidity_IsbL-0850_RLatLon0.03_PT045H.grib2 2026-05-04 18:24 2.7M
20260504T12Z_MSC_CAPS_RelativeHumidity_IsbL-0875_RLatLon0.03_PT045H.grib2 2026-05-04 18:24 2.7M
20260504T12Z_MSC_CAPS_RelativeHumidity_IsbL-0900_RLatLon0.03_PT045H.grib2 2026-05-04 18:24 2.7M
20260504T12Z_MSC_CAPS_RelativeHumidity_IsbL-0925_RLatLon0.03_PT045H.grib2 2026-05-04 18:24 2.7M
20260504T12Z_MSC_CAPS_RelativeHumidity_IsbL-0950_RLatLon0.03_PT045H.grib2 2026-05-04 18:24 2.8M
20260504T12Z_MSC_CAPS_RelativeHumidity_IsbL-0970_RLatLon0.03_PT045H.grib2 2026-05-04 18:24 2.9M
20260504T12Z_MSC_CAPS_RelativeHumidity_IsbL-0985_RLatLon0.03_PT045H.grib2 2026-05-04 18:24 3.0M
20260504T12Z_MSC_CAPS_RelativeHumidity_IsbL-1000_RLatLon0.03_PT045H.grib2 2026-05-04 18:24 3.0M
20260504T12Z_MSC_CAPS_RelativeHumidity_IsbL-1015_RLatLon0.03_PT045H.grib2 2026-05-04 18:24 3.0M
20260504T12Z_MSC_CAPS_Runoff-Accum_Sfc_RLatLon0.03_PT045H.grib2 2026-05-04 18:24 355K
20260504T12Z_MSC_CAPS_SeaIceAreaFraction_Sfc_RLatLon0.03_PT045H.nc 2026-05-04 18:14 15M
20260504T12Z_MSC_CAPS_SeaIceCompressiveStrength_Sfc_RLatLon0.03_PT045H.nc 2026-05-04 18:14 15M
20260504T12Z_MSC_CAPS_SeaIceDivergence_Sfc_RLatLon0.03_PT045H.nc 2026-05-04 18:14 15M
20260504T12Z_MSC_CAPS_SeaIceInternalPressure_Sfc_RLatLon0.03_PT045H.nc 2026-05-04 18:14 15M
20260504T12Z_MSC_CAPS_SeaIceShear_Sfc_RLatLon0.03_PT045H.nc 2026-05-04 18:14 14M
20260504T12Z_MSC_CAPS_SeaIceSnowTemp_Sfc_RLatLon0.03_PT045H.nc 2026-05-04 18:14 14M
20260504T12Z_MSC_CAPS_SeaIceSnowVolume_Sfc_RLatLon0.03_PT045H.nc 2026-05-04 18:14 15M
20260504T12Z_MSC_CAPS_SeaIceVelocityX_Sfc_RLatLon0.03_PT045H.nc 2026-05-04 18:14 15M
20260504T12Z_MSC_CAPS_SeaIceVelocityY_Sfc_RLatLon0.03_PT045H.nc 2026-05-04 18:14 15M
20260504T12Z_MSC_CAPS_SeaIceVolume_Sfc_RLatLon0.03_PT045H.nc 2026-05-04 18:14 15M
20260504T12Z_MSC_CAPS_SeaSurfaceHeight_Sfc_RLatLon0.03_PT045H.nc 2026-05-04 18:14 16M
20260504T12Z_MSC_CAPS_SeaWaterSalinity_DBS-0.5m_RLatLon0.03_PT045H.nc 2026-05-04 18:14 16M
20260504T12Z_MSC_CAPS_SeaWaterSalinity_DBS-all_RLatLon0.03_PT045H.nc 2026-05-04 18:14 107M
20260504T12Z_MSC_CAPS_SeaWaterTemp_DBS-0.5m_RLatLon0.03_PT045H.nc 2026-05-04 18:14 14M
20260504T12Z_MSC_CAPS_SeaWaterTemp_DBS-all_RLatLon0.03_PT045H.nc 2026-05-04 18:14 88M
20260504T12Z_MSC_CAPS_SeaWaterVelocityX_DBS-0.5m_RLatLon0.03_PT045H.nc 2026-05-04 18:14 17M
20260504T12Z_MSC_CAPS_SeaWaterVelocityX_DBS-all_RLatLon0.03_PT045H.nc 2026-05-04 18:14 209M
20260504T12Z_MSC_CAPS_SeaWaterVelocityY_DBS-0.5m_RLatLon0.03_PT045H.nc 2026-05-04 18:14 17M
20260504T12Z_MSC_CAPS_SeaWaterVelocityY_DBS-all_RLatLon0.03_PT045H.nc 2026-05-04 18:14 214M
20260504T12Z_MSC_CAPS_SensibleHeatNetFlux_Sfc_RLatLon0.03_PT045H.grib2 2026-05-04 18:24 1.7M
20260504T12Z_MSC_CAPS_ShowalterIndex_IsbL-0500_RLatLon0.03_PT045H.grib2 2026-05-04 18:24 3.8M
20260504T12Z_MSC_CAPS_Snow-Accum_Sfc_RLatLon0.03_PT045H.grib2 2026-05-04 18:24 4.5M
20260504T12Z_MSC_CAPS_SnowDensity_Sfc_RLatLon0.03_PT045H.grib2 2026-05-04 18:24 1.3M
20260504T12Z_MSC_CAPS_SnowDepthWaterEquivalent_Sfc_RLatLon0.03_PT045H.grib2 2026-05-04 18:24 660K
20260504T12Z_MSC_CAPS_SnowDepth_Sfc_RLatLon0.03_PT045H.grib2 2026-05-04 18:24 1.1M
20260504T12Z_MSC_CAPS_SoilTemp_DBS-0to10cm_RLatLon0.03_PT045H.grib2 2026-05-04 18:24 1.7M
20260504T12Z_MSC_CAPS_SoilTemp_Sfc_RLatLon0.03_PT045H.grib2 2026-05-04 18:24 1.8M
20260504T12Z_MSC_CAPS_SoilVolumetricIceContent_Sfc_RLatLon0.03_PT045H.grib2 2026-05-04 18:24 1.4M
20260504T12Z_MSC_CAPS_SoilVolumetricWaterContent_DBS-0to10cm_RLatLon0.03_PT045H.grib2 2026-05-04 18:24 1.3M
20260504T12Z_MSC_CAPS_SoilVolumetricWaterContent_DBS-0to1cm_RLatLon0.03_PT045H.grib2 2026-05-04 18:24 1.8M
20260504T12Z_MSC_CAPS_SpecificHumidity_AGL-120m_RLatLon0.03_PT045H.grib2 2026-05-04 18:24 1.9M
20260504T12Z_MSC_CAPS_SpecificHumidity_AGL-2m_RLatLon0.03_PT045H.grib2 2026-05-04 18:24 1.8M
20260504T12Z_MSC_CAPS_SpecificHumidity_AGL-40m_RLatLon0.03_PT045H.grib2 2026-05-04 18:24 1.9M
20260504T12Z_MSC_CAPS_SpecificHumidity_AGL-80m_RLatLon0.03_PT045H.grib2 2026-05-04 18:24 1.9M
20260504T12Z_MSC_CAPS_SpecificHumidity_IsbL-0050_RLatLon0.03_PT045H.grib2 2026-05-04 18:24 949K
20260504T12Z_MSC_CAPS_SpecificHumidity_IsbL-0100_RLatLon0.03_PT045H.grib2 2026-05-04 18:24 1.1M
20260504T12Z_MSC_CAPS_SpecificHumidity_IsbL-0150_RLatLon0.03_PT045H.grib2 2026-05-04 18:24 1.0M
20260504T12Z_MSC_CAPS_SpecificHumidity_IsbL-0175_RLatLon0.03_PT045H.grib2 2026-05-04 18:24 1.0M
20260504T12Z_MSC_CAPS_SpecificHumidity_IsbL-0200_RLatLon0.03_PT045H.grib2 2026-05-04 18:24 909K
20260504T12Z_MSC_CAPS_SpecificHumidity_IsbL-0225_RLatLon0.03_PT045H.grib2 2026-05-04 18:24 1.1M
20260504T12Z_MSC_CAPS_SpecificHumidity_IsbL-0250_RLatLon0.03_PT045H.grib2 2026-05-04 18:24 1.1M
20260504T12Z_MSC_CAPS_SpecificHumidity_IsbL-0275_RLatLon0.03_PT045H.grib2 2026-05-04 18:24 1.1M
20260504T12Z_MSC_CAPS_SpecificHumidity_IsbL-0300_RLatLon0.03_PT045H.grib2 2026-05-04 18:24 1.0M
20260504T12Z_MSC_CAPS_SpecificHumidity_IsbL-0350_RLatLon0.03_PT045H.grib2 2026-05-04 18:24 1.2M
20260504T12Z_MSC_CAPS_SpecificHumidity_IsbL-0400_RLatLon0.03_PT045H.grib2 2026-05-04 18:24 1.2M
20260504T12Z_MSC_CAPS_SpecificHumidity_IsbL-0450_RLatLon0.03_PT045H.grib2 2026-05-04 18:24 1.2M
20260504T12Z_MSC_CAPS_SpecificHumidity_IsbL-0500_RLatLon0.03_PT045H.grib2 2026-05-04 18:24 1.4M
20260504T12Z_MSC_CAPS_SpecificHumidity_IsbL-0550_RLatLon0.03_PT045H.grib2 2026-05-04 18:24 1.3M
20260504T12Z_MSC_CAPS_SpecificHumidity_IsbL-0600_RLatLon0.03_PT045H.grib2 2026-05-04 18:24 1.4M
20260504T12Z_MSC_CAPS_SpecificHumidity_IsbL-0650_RLatLon0.03_PT045H.grib2 2026-05-04 18:24 1.6M
20260504T12Z_MSC_CAPS_SpecificHumidity_IsbL-0700_RLatLon0.03_PT045H.grib2 2026-05-04 18:24 1.3M
20260504T12Z_MSC_CAPS_SpecificHumidity_IsbL-0750_RLatLon0.03_PT045H.grib2 2026-05-04 18:24 1.5M
20260504T12Z_MSC_CAPS_SpecificHumidity_IsbL-0800_RLatLon0.03_PT045H.grib2 2026-05-04 18:24 1.6M
20260504T12Z_MSC_CAPS_SpecificHumidity_IsbL-0850_RLatLon0.03_PT045H.grib2 2026-05-04 18:24 1.8M
20260504T12Z_MSC_CAPS_SpecificHumidity_IsbL-0875_RLatLon0.03_PT045H.grib2 2026-05-04 18:24 1.9M
20260504T12Z_MSC_CAPS_SpecificHumidity_IsbL-0900_RLatLon0.03_PT045H.grib2 2026-05-04 18:24 1.9M
20260504T12Z_MSC_CAPS_SpecificHumidity_IsbL-0925_RLatLon0.03_PT045H.grib2 2026-05-04 18:24 2.0M
20260504T12Z_MSC_CAPS_SpecificHumidity_IsbL-0950_RLatLon0.03_PT045H.grib2 2026-05-04 18:24 2.0M
20260504T12Z_MSC_CAPS_SpecificHumidity_IsbL-0970_RLatLon0.03_PT045H.grib2 2026-05-04 18:24 2.1M
20260504T12Z_MSC_CAPS_SpecificHumidity_IsbL-0985_RLatLon0.03_PT045H.grib2 2026-05-04 18:24 1.7M
20260504T12Z_MSC_CAPS_SpecificHumidity_IsbL-1000_RLatLon0.03_PT045H.grib2 2026-05-04 18:24 1.8M
20260504T12Z_MSC_CAPS_SpecificHumidity_IsbL-1015_RLatLon0.03_PT045H.grib2 2026-05-04 18:24 1.8M
20260504T12Z_MSC_CAPS_SpecificHumidity_Sfc_RLatLon0.03_PT045H.grib2 2026-05-04 18:24 2.0M
20260504T12Z_MSC_CAPS_StormRelativeHelicity_Sfc_RLatLon0.03_PT045H.grib2 2026-05-04 18:24 3.3M
20260504T12Z_MSC_CAPS_Thickness_IsbL-1000to0500_RLatLon0.03_PT045H.grib2 2026-05-04 18:24 430K
20260504T12Z_MSC_CAPS_TotalCloudCover_Sfc_RLatLon0.03_PT045H.grib2 2026-05-04 18:24 3.7M
20260504T12Z_MSC_CAPS_TurboclineDepth_Sfc_RLatLon0.03_PT045H.nc 2026-05-04 18:14 16M
20260504T12Z_MSC_CAPS_UpwardLongwaveRadiationFlux_NTAtm_RLatLon0.03_PT045H.grib2 2026-05-04 18:24 3.0M
20260504T12Z_MSC_CAPS_UpwardShortwaveRadiationFlux_NTAtm_RLatLon0.03_PT045H.grib2 2026-05-04 18:24 2.0M
20260504T12Z_MSC_CAPS_VerticalVelocity_IsbL-0250_RLatLon0.03_PT045H.grib2 2026-05-04 18:24 1.2M
20260504T12Z_MSC_CAPS_VerticalVelocity_IsbL-0500_RLatLon0.03_PT045H.grib2 2026-05-04 18:24 1.1M
20260504T12Z_MSC_CAPS_VerticalVelocity_IsbL-0700_RLatLon0.03_PT045H.grib2 2026-05-04 18:24 1.0M
20260504T12Z_MSC_CAPS_VerticalVelocity_IsbL-0850_RLatLon0.03_PT045H.grib2 2026-05-04 18:24 1.2M
20260504T12Z_MSC_CAPS_VerticalVelocity_IsbL-1000_RLatLon0.03_PT045H.grib2 2026-05-04 18:24 1.5M
20260504T12Z_MSC_CAPS_WindDir_AGL-10m_RLatLon0.03_PT045H.grib2 2026-05-04 18:24 2.4M
20260504T12Z_MSC_CAPS_WindDir_AGL-120m_RLatLon0.03_PT045H.grib2 2026-05-04 18:24 1.2M
20260504T12Z_MSC_CAPS_WindDir_AGL-40m_RLatLon0.03_PT045H.grib2 2026-05-04 18:24 1.4M
20260504T12Z_MSC_CAPS_WindDir_AGL-80m_RLatLon0.03_PT045H.grib2 2026-05-04 18:24 1.3M
20260504T12Z_MSC_CAPS_WindDir_IsbL-0050_RLatLon0.03_PT045H.grib2 2026-05-04 18:24 1.1M
20260504T12Z_MSC_CAPS_WindDir_IsbL-0100_RLatLon0.03_PT045H.grib2 2026-05-04 18:24 1.0M
20260504T12Z_MSC_CAPS_WindDir_IsbL-0150_RLatLon0.03_PT045H.grib2 2026-05-04 18:24 1.0M
20260504T12Z_MSC_CAPS_WindDir_IsbL-0175_RLatLon0.03_PT045H.grib2 2026-05-04 18:24 1.0M
20260504T12Z_MSC_CAPS_WindDir_IsbL-0200_RLatLon0.03_PT045H.grib2 2026-05-04 18:24 1.1M
20260504T12Z_MSC_CAPS_WindDir_IsbL-0225_RLatLon0.03_PT045H.grib2 2026-05-04 18:24 1.1M
20260504T12Z_MSC_CAPS_WindDir_IsbL-0250_RLatLon0.03_PT045H.grib2 2026-05-04 18:24 1.1M
20260504T12Z_MSC_CAPS_WindDir_IsbL-0275_RLatLon0.03_PT045H.grib2 2026-05-04 18:24 1.1M
20260504T12Z_MSC_CAPS_WindDir_IsbL-0300_RLatLon0.03_PT045H.grib2 2026-05-04 18:24 1.1M
20260504T12Z_MSC_CAPS_WindDir_IsbL-0350_RLatLon0.03_PT045H.grib2 2026-05-04 18:24 1.1M
20260504T12Z_MSC_CAPS_WindDir_IsbL-0400_RLatLon0.03_PT045H.grib2 2026-05-04 18:24 1.2M
20260504T12Z_MSC_CAPS_WindDir_IsbL-0450_RLatLon0.03_PT045H.grib2 2026-05-04 18:24 1.2M
20260504T12Z_MSC_CAPS_WindDir_IsbL-0500_RLatLon0.03_PT045H.grib2 2026-05-04 18:24 1.3M
20260504T12Z_MSC_CAPS_WindDir_IsbL-0550_RLatLon0.03_PT045H.grib2 2026-05-04 18:24 1.3M
20260504T12Z_MSC_CAPS_WindDir_IsbL-0600_RLatLon0.03_PT045H.grib2 2026-05-04 18:24 1.4M
20260504T12Z_MSC_CAPS_WindDir_IsbL-0650_RLatLon0.03_PT045H.grib2 2026-05-04 18:24 1.4M
20260504T12Z_MSC_CAPS_WindDir_IsbL-0700_RLatLon0.03_PT045H.grib2 2026-05-04 18:24 1.5M
20260504T12Z_MSC_CAPS_WindDir_IsbL-0750_RLatLon0.03_PT045H.grib2 2026-05-04 18:24 1.7M
20260504T12Z_MSC_CAPS_WindDir_IsbL-0800_RLatLon0.03_PT045H.grib2 2026-05-04 18:24 1.7M
20260504T12Z_MSC_CAPS_WindDir_IsbL-0850_RLatLon0.03_PT045H.grib2 2026-05-04 18:24 1.8M
20260504T12Z_MSC_CAPS_WindDir_IsbL-0875_RLatLon0.03_PT045H.grib2 2026-05-04 18:24 1.9M
20260504T12Z_MSC_CAPS_WindDir_IsbL-0900_RLatLon0.03_PT045H.grib2 2026-05-04 18:24 1.9M
20260504T12Z_MSC_CAPS_WindDir_IsbL-0925_RLatLon0.03_PT045H.grib2 2026-05-04 18:24 2.0M
20260504T12Z_MSC_CAPS_WindDir_IsbL-0950_RLatLon0.03_PT045H.grib2 2026-05-04 18:24 2.1M
20260504T12Z_MSC_CAPS_WindDir_IsbL-0970_RLatLon0.03_PT045H.grib2 2026-05-04 18:24 2.1M
20260504T12Z_MSC_CAPS_WindDir_IsbL-0985_RLatLon0.03_PT045H.grib2 2026-05-04 18:24 2.2M
20260504T12Z_MSC_CAPS_WindDir_IsbL-1000_RLatLon0.03_PT045H.grib2 2026-05-04 18:24 2.3M
20260504T12Z_MSC_CAPS_WindDir_IsbL-1015_RLatLon0.03_PT045H.grib2 2026-05-04 18:24 2.4M
20260504T12Z_MSC_CAPS_WindGust-Max_AGL-10m_RLatLon0.03_PT045H.grib2 2026-05-04 18:24 2.6M
20260504T12Z_MSC_CAPS_WindGust-Min_AGL-10m_RLatLon0.03_PT045H.grib2 2026-05-04 18:24 2.4M
20260504T12Z_MSC_CAPS_WindGust_AGL-10m_RLatLon0.03_PT045H.grib2 2026-05-04 18:24 2.6M
20260504T12Z_MSC_CAPS_WindSpeed_AGL-10m_RLatLon0.03_PT045H.grib2 2026-05-04 18:24 2.2M
20260504T12Z_MSC_CAPS_WindSpeed_AGL-120m_RLatLon0.03_PT045H.grib2 2026-05-04 18:24 1.2M
20260504T12Z_MSC_CAPS_WindSpeed_AGL-40m_RLatLon0.03_PT045H.grib2 2026-05-04 18:24 1.2M
20260504T12Z_MSC_CAPS_WindSpeed_AGL-80m_RLatLon0.03_PT045H.grib2 2026-05-04 18:24 1.2M
20260504T12Z_MSC_CAPS_WindSpeed_IsbL-0050_RLatLon0.03_PT045H.grib2 2026-05-04 18:24 956K
20260504T12Z_MSC_CAPS_WindSpeed_IsbL-0100_RLatLon0.03_PT045H.grib2 2026-05-04 18:24 1.3M
20260504T12Z_MSC_CAPS_WindSpeed_IsbL-0150_RLatLon0.03_PT045H.grib2 2026-05-04 18:24 1.0M
20260504T12Z_MSC_CAPS_WindSpeed_IsbL-0175_RLatLon0.03_PT045H.grib2 2026-05-04 18:24 1.1M
20260504T12Z_MSC_CAPS_WindSpeed_IsbL-0200_RLatLon0.03_PT045H.grib2 2026-05-04 18:24 1.1M
20260504T12Z_MSC_CAPS_WindSpeed_IsbL-0225_RLatLon0.03_PT045H.grib2 2026-05-04 18:24 1.3M
20260504T12Z_MSC_CAPS_WindSpeed_IsbL-0250_RLatLon0.03_PT045H.grib2 2026-05-04 18:24 1.0M
20260504T12Z_MSC_CAPS_WindSpeed_IsbL-0275_RLatLon0.03_PT045H.grib2 2026-05-04 18:24 1.0M
20260504T12Z_MSC_CAPS_WindSpeed_IsbL-0300_RLatLon0.03_PT045H.grib2 2026-05-04 18:24 1.0M
20260504T12Z_MSC_CAPS_WindSpeed_IsbL-0350_RLatLon0.03_PT045H.grib2 2026-05-04 18:24 1.0M
20260504T12Z_MSC_CAPS_WindSpeed_IsbL-0400_RLatLon0.03_PT045H.grib2 2026-05-04 18:24 1.1M
20260504T12Z_MSC_CAPS_WindSpeed_IsbL-0450_RLatLon0.03_PT045H.grib2 2026-05-04 18:24 1.0M
20260504T12Z_MSC_CAPS_WindSpeed_IsbL-0500_RLatLon0.03_PT045H.grib2 2026-05-04 18:24 1.0M
20260504T12Z_MSC_CAPS_WindSpeed_IsbL-0550_RLatLon0.03_PT045H.grib2 2026-05-04 18:24 1.1M
20260504T12Z_MSC_CAPS_WindSpeed_IsbL-0600_RLatLon0.03_PT045H.grib2 2026-05-04 18:24 1.0M
20260504T12Z_MSC_CAPS_WindSpeed_IsbL-0650_RLatLon0.03_PT045H.grib2 2026-05-04 18:24 1.4M
20260504T12Z_MSC_CAPS_WindSpeed_IsbL-0700_RLatLon0.03_PT045H.grib2 2026-05-04 18:24 1.4M
20260504T12Z_MSC_CAPS_WindSpeed_IsbL-0750_RLatLon0.03_PT045H.grib2 2026-05-04 18:24 1.6M
20260504T12Z_MSC_CAPS_WindSpeed_IsbL-0800_RLatLon0.03_PT045H.grib2 2026-05-04 18:24 1.7M
20260504T12Z_MSC_CAPS_WindSpeed_IsbL-0850_RLatLon0.03_PT045H.grib2 2026-05-04 18:24 1.8M
20260504T12Z_MSC_CAPS_WindSpeed_IsbL-0875_RLatLon0.03_PT045H.grib2 2026-05-04 18:24 1.8M
20260504T12Z_MSC_CAPS_WindSpeed_IsbL-0900_RLatLon0.03_PT045H.grib2 2026-05-04 18:24 1.9M
20260504T12Z_MSC_CAPS_WindSpeed_IsbL-0925_RLatLon0.03_PT045H.grib2 2026-05-04 18:24 1.9M
20260504T12Z_MSC_CAPS_WindSpeed_IsbL-0950_RLatLon0.03_PT045H.grib2 2026-05-04 18:24 2.0M
20260504T12Z_MSC_CAPS_WindSpeed_IsbL-0970_RLatLon0.03_PT045H.grib2 2026-05-04 18:24 2.1M
20260504T12Z_MSC_CAPS_WindSpeed_IsbL-0985_RLatLon0.03_PT045H.grib2 2026-05-04 18:24 2.1M
20260504T12Z_MSC_CAPS_WindSpeed_IsbL-1000_RLatLon0.03_PT045H.grib2 2026-05-04 18:24 2.1M
20260504T12Z_MSC_CAPS_WindSpeed_IsbL-1015_RLatLon0.03_PT045H.grib2 2026-05-04 18:24 2.1M
20260504T12Z_MSC_CAPS_WindU_AGL-10m_RLatLon0.03_PT045H.grib2 2026-05-04 18:24 2.1M
20260504T12Z_MSC_CAPS_WindU_AGL-120m_RLatLon0.03_PT045H.grib2 2026-05-04 18:24 1.2M
20260504T12Z_MSC_CAPS_WindU_AGL-40m_RLatLon0.03_PT045H.grib2 2026-05-04 18:24 1.2M
20260504T12Z_MSC_CAPS_WindU_AGL-80m_RLatLon0.03_PT045H.grib2 2026-05-04 18:24 1.2M
20260504T12Z_MSC_CAPS_WindU_IsbL-0050_RLatLon0.03_PT045H.grib2 2026-05-04 18:24 719K
20260504T12Z_MSC_CAPS_WindU_IsbL-0100_RLatLon0.03_PT045H.grib2 2026-05-04 18:24 964K
20260504T12Z_MSC_CAPS_WindU_IsbL-0150_RLatLon0.03_PT045H.grib2 2026-05-04 18:24 928K
20260504T12Z_MSC_CAPS_WindU_IsbL-0175_RLatLon0.03_PT045H.grib2 2026-05-04 18:24 740K
20260504T12Z_MSC_CAPS_WindU_IsbL-0200_RLatLon0.03_PT045H.grib2 2026-05-04 18:24 762K
20260504T12Z_MSC_CAPS_WindU_IsbL-0225_RLatLon0.03_PT045H.grib2 2026-05-04 18:24 908K
20260504T12Z_MSC_CAPS_WindU_IsbL-0250_RLatLon0.03_PT045H.grib2 2026-05-04 18:24 923K
20260504T12Z_MSC_CAPS_WindU_IsbL-0275_RLatLon0.03_PT045H.grib2 2026-05-04 18:24 927K
20260504T12Z_MSC_CAPS_WindU_IsbL-0300_RLatLon0.03_PT045H.grib2 2026-05-04 18:24 934K
20260504T12Z_MSC_CAPS_WindU_IsbL-0350_RLatLon0.03_PT045H.grib2 2026-05-04 18:24 738K
20260504T12Z_MSC_CAPS_WindU_IsbL-0400_RLatLon0.03_PT045H.grib2 2026-05-04 18:24 961K
20260504T12Z_MSC_CAPS_WindU_IsbL-0450_RLatLon0.03_PT045H.grib2 2026-05-04 18:24 1.0M
20260504T12Z_MSC_CAPS_WindU_IsbL-0500_RLatLon0.03_PT045H.grib2 2026-05-04 18:24 1.0M
20260504T12Z_MSC_CAPS_WindU_IsbL-0550_RLatLon0.03_PT045H.grib2 2026-05-04 18:24 1.0M
20260504T12Z_MSC_CAPS_WindU_IsbL-0600_RLatLon0.03_PT045H.grib2 2026-05-04 18:24 957K
20260504T12Z_MSC_CAPS_WindU_IsbL-0650_RLatLon0.03_PT045H.grib2 2026-05-04 18:24 1.0M
20260504T12Z_MSC_CAPS_WindU_IsbL-0700_RLatLon0.03_PT045H.grib2 2026-05-04 18:24 1.0M
20260504T12Z_MSC_CAPS_WindU_IsbL-0750_RLatLon0.03_PT045H.grib2 2026-05-04 18:24 1.1M
20260504T12Z_MSC_CAPS_WindU_IsbL-0800_RLatLon0.03_PT045H.grib2 2026-05-04 18:24 1.5M
20260504T12Z_MSC_CAPS_WindU_IsbL-0850_RLatLon0.03_PT045H.grib2 2026-05-04 18:24 1.6M
20260504T12Z_MSC_CAPS_WindU_IsbL-0875_RLatLon0.03_PT045H.grib2 2026-05-04 18:24 1.3M
20260504T12Z_MSC_CAPS_WindU_IsbL-0900_RLatLon0.03_PT045H.grib2 2026-05-04 18:24 1.3M
20260504T12Z_MSC_CAPS_WindU_IsbL-0925_RLatLon0.03_PT045H.grib2 2026-05-04 18:24 1.4M
20260504T12Z_MSC_CAPS_WindU_IsbL-0950_RLatLon0.03_PT045H.grib2 2026-05-04 18:24 1.4M
20260504T12Z_MSC_CAPS_WindU_IsbL-0970_RLatLon0.03_PT045H.grib2 2026-05-04 18:24 1.5M
20260504T12Z_MSC_CAPS_WindU_IsbL-0985_RLatLon0.03_PT045H.grib2 2026-05-04 18:24 1.9M
20260504T12Z_MSC_CAPS_WindU_IsbL-1000_RLatLon0.03_PT045H.grib2 2026-05-04 18:24 1.9M
20260504T12Z_MSC_CAPS_WindU_IsbL-1015_RLatLon0.03_PT045H.grib2 2026-05-04 18:24 1.9M
20260504T12Z_MSC_CAPS_WindV_AGL-10m_RLatLon0.03_PT045H.grib2 2026-05-04 18:24 2.1M
20260504T12Z_MSC_CAPS_WindV_AGL-120m_RLatLon0.03_PT045H.grib2 2026-05-04 18:24 931K
20260504T12Z_MSC_CAPS_WindV_AGL-40m_RLatLon0.03_PT045H.grib2 2026-05-04 18:24 1.3M
20260504T12Z_MSC_CAPS_WindV_AGL-80m_RLatLon0.03_PT045H.grib2 2026-05-04 18:24 1.2M
20260504T12Z_MSC_CAPS_WindV_IsbL-0050_RLatLon0.03_PT045H.grib2 2026-05-04 18:24 770K
20260504T12Z_MSC_CAPS_WindV_IsbL-0100_RLatLon0.03_PT045H.grib2 2026-05-04 18:24 790K
20260504T12Z_MSC_CAPS_WindV_IsbL-0150_RLatLon0.03_PT045H.grib2 2026-05-04 18:24 916K
20260504T12Z_MSC_CAPS_WindV_IsbL-0175_RLatLon0.03_PT045H.grib2 2026-05-04 18:24 726K
20260504T12Z_MSC_CAPS_WindV_IsbL-0200_RLatLon0.03_PT045H.grib2 2026-05-04 18:24 874K
20260504T12Z_MSC_CAPS_WindV_IsbL-0225_RLatLon0.03_PT045H.grib2 2026-05-04 18:24 893K
20260504T12Z_MSC_CAPS_WindV_IsbL-0250_RLatLon0.03_PT045H.grib2 2026-05-04 18:24 700K
20260504T12Z_MSC_CAPS_WindV_IsbL-0275_RLatLon0.03_PT045H.grib2 2026-05-04 18:24 707K
20260504T12Z_MSC_CAPS_WindV_IsbL-0300_RLatLon0.03_PT045H.grib2 2026-05-04 18:24 717K
20260504T12Z_MSC_CAPS_WindV_IsbL-0350_RLatLon0.03_PT045H.grib2 2026-05-04 18:24 732K
20260504T12Z_MSC_CAPS_WindV_IsbL-0400_RLatLon0.03_PT045H.grib2 2026-05-04 18:24 736K
20260504T12Z_MSC_CAPS_WindV_IsbL-0450_RLatLon0.03_PT045H.grib2 2026-05-04 18:24 1.0M
20260504T12Z_MSC_CAPS_WindV_IsbL-0500_RLatLon0.03_PT045H.grib2 2026-05-04 18:24 1.0M
20260504T12Z_MSC_CAPS_WindV_IsbL-0550_RLatLon0.03_PT045H.grib2 2026-05-04 18:24 1.0M
20260504T12Z_MSC_CAPS_WindV_IsbL-0600_RLatLon0.03_PT045H.grib2 2026-05-04 18:24 1.0M
20260504T12Z_MSC_CAPS_WindV_IsbL-0650_RLatLon0.03_PT045H.grib2 2026-05-04 18:24 1.1M
20260504T12Z_MSC_CAPS_WindV_IsbL-0700_RLatLon0.03_PT045H.grib2 2026-05-04 18:24 1.0M
20260504T12Z_MSC_CAPS_WindV_IsbL-0750_RLatLon0.03_PT045H.grib2 2026-05-04 18:24 1.2M
20260504T12Z_MSC_CAPS_WindV_IsbL-0800_RLatLon0.03_PT045H.grib2 2026-05-04 18:24 1.2M
20260504T12Z_MSC_CAPS_WindV_IsbL-0850_RLatLon0.03_PT045H.grib2 2026-05-04 18:24 1.3M
20260504T12Z_MSC_CAPS_WindV_IsbL-0875_RLatLon0.03_PT045H.grib2 2026-05-04 18:24 1.3M
20260504T12Z_MSC_CAPS_WindV_IsbL-0900_RLatLon0.03_PT045H.grib2 2026-05-04 18:24 1.3M
20260504T12Z_MSC_CAPS_WindV_IsbL-0925_RLatLon0.03_PT045H.grib2 2026-05-04 18:24 1.4M
20260504T12Z_MSC_CAPS_WindV_IsbL-0950_RLatLon0.03_PT045H.grib2 2026-05-04 18:24 1.4M
20260504T12Z_MSC_CAPS_WindV_IsbL-0970_RLatLon0.03_PT045H.grib2 2026-05-04 18:24 1.5M
20260504T12Z_MSC_CAPS_WindV_IsbL-0985_RLatLon0.03_PT045H.grib2 2026-05-04 18:24 1.5M
20260504T12Z_MSC_CAPS_WindV_IsbL-1000_RLatLon0.03_PT045H.grib2 2026-05-04 18:24 1.5M
20260504T12Z_MSC_CAPS_WindV_IsbL-1015_RLatLon0.03_PT045H.grib2 2026-05-04 18:24 1.9M